Regional Weather Roundup
Issued by NWS

Home | Current Version | Previous Version | Text Only | Print | Product List | Glossary On
Versions: 1 2 3 4 5 6 7 8 9 10 11 12 13 14 15 16 17 18 19 20 21 22 23 24 25 26 27 28 29 30 31 32 33 34 35 36 37 38 39 40 41 42 43 44 45 46 47 48 49 50
394
ASUS43 KFSD 302310
RWRSD

WEATHER ROUNDUP FOR SOUTH DAKOTA
NATIONAL WEATHER SERVICE SIOUX FALLS SD
600 PM CDT MON MAY 30 2016

NOTE: "FAIR" INDICATES FEW OR NO CLOUDS BELOW 12,000 FEET WITH NO
SIGNIFICANT WEATHER AND/OR OBSTRUCTIONS TO VISIBILITY.


SDZ001>005-009-010-012>017-310000-
NORTHWEST AND NORTH CENTRAL SOUTH DAKOTA

CITY           SKY/WX    TMP DP  RH WIND       PRES   REMARKS
BUFFALO          N/A     68  50  52 NW36G53   29.83R
FAITH            N/A     57  52  83 N10       29.85R
MOBRIDGE       CLOUDY    65  55  70 E16       29.69S
$$

SDZ012>016-024>037-041>051-057-063-072>074-310000-
SOUTHWEST AND SOUTH CENTRAL SOUTH DAKOTA

CITY           SKY/WX    TMP DP  RH WIND       PRES   REMARKS
RAPID CTY ARPT MOSUNNY   70  47  43 N25G35    29.85S
PIERRE         CLOUDY    81  58  45 S15G24    29.68F
CUSTER         CLOUDY    67  34  29 W14G22    29.94S
ELLSWORTH AFB  MOSUNNY   69  48  47 N28G36    29.85S
PHILIP         CLOUDY    68  58  70 N28G40    29.76R
PINE RIDGE     CLOUDY    77  45  32 W17G25    29.84S
WINNER         FAIR      77  55  46 S13       29.74F
$$

SDZ004>011-016>023-039-040-310000-
NORTHEAST SOUTH DAKOTA

CITY           SKY/WX    TMP DP  RH WIND       PRES   REMARKS
ABERDEEN       CLOUDY    82  57  42 S18G26    29.75F
WATERTOWN      MOSUNNY   80  56  43 S17G24    29.79F
BROOKINGS      SUNNY     80  60  50 S13G20    29.80F
SISSETON         N/A     84  48  28 S20G26    29.77F
$$

SDZ017-020-022-023-036>040-048>070-310000-
SOUTHEAST SOUTH DAKOTA

CITY           SKY/WX    TMP DP  RH WIND       PRES   REMARKS
SIOUX FALLS    MOSUNNY   81  55  40 S13       29.80F
HURON          MOSUNNY   80  59  48 S16       29.74F
CHAMBERLAIN    CLOUDY    78  65  63 SE10      29.73F
MITCHELL       MOSUNNY   80  61  52 S15G22    29.76F
YANKTON        SUNNY     84  54  34 S15G22    29.76F
$$

ABBREVIATIONS USED IN REMARKS
   TC - TEMPERATURE IN CELSIUS
  WCI - WIND CHILL INDEX
   HX - HEAT INDEX
  VSB - VISIBILITY





USA.gov is the U.S. government's official web portal to all federal, state and local government web resources and services.